Temperature
18 18 19 19 19 19 20 22 25 26 26 26 25 25 25 25 23 21 21 20 20 21 20 19 18 17 16 16 16 15 15 15 15 14 14 14 13 13 13 13 13 13 13 13 13 13 13 13 13
18 18 19 20 19 19 21 23 25 26 26 24 25 25 25 26 23 21 20 19 19 20 20 19 18 17 16 16 15 15 15 15 14 14 14 13 13 13 13 14 14 14 14 13 13 13 13 13 13
17 18 19 19 19 19 21 25 25 25 25 24 25 25 26 25 23 21 20 19 18 19 19 19 18 17 16 15 15 15 15 15 14 14 13 13 13 13 13 14 14 14 14 14 14 14 14 14 14
17 18 19 19 19 21 22 25 25 25 25 24 25 25 25 23 22 21 20 19 18 18 19 19 18 17 16 16 15 16 15 15 14 14 13 13 13 13 13 13 14 14 14 14 14 14 14 14 14
16 18 18 18 19 22 23 25 24 24 24 25 25 25 23 22 22 21 20 19 18 17 18 18 18 17 17 16 16 16 16 15 14 14 13 13 13 13 13 13 14 14 14 14 14 14 14 14 14
17 19 18 18 20 22 23 25 24 23 24 25 24 24 23 22 21 20 20 20 19 18 18 18 18 17 17 16 16 16 16 15 15 14 13 13 13 13 13 13 14 14 14 14 14 14 14 14 14
17 17 18 19 20 22 24 25 24 23 23 24 25 24 23 21 21 20 20 19 19 18 18 18 17 17 17 17 16 16 16 16 15 14 14 14 13 13 13 13 14 14 14 14 14 14 14 14 13
17 18 18 19 20 21 24 25 24 23 23 24 24 24 22 21 20 20 19 19 19 18 17 17 17 17 17 16 16 16 16 16 15 15 15 14 14 13 13 13 14 14 14 14 14 13 13 13 13
16 16 16 18 19 21 23 23 23 23 22 23 23 22 21 20 20 20 19 19 18 17 17 16 16 16 16 16 16 16 16 16 16 15 15 14 14 13 13 14 14 14 14 14 13 13 13 13 13
16 15 17 19 20 21 22 23 22 22 21 22 22 22 21 20 20 19 19 18 18 17 17 16 16 16 15 15 16 16 16 16 16 16 15 14 14 13 13 13 14 14 13 13 13 13 13 12 12
16 16 17 19 20 20 20 21 21 21 20 22 22 22 21 20 20 19 19 19 18 18 17 17 16 16 15 15 15 15 15 15 15 15 15 14 13 13 13 13 13 13 13 13 13 12 12 12 12
16 17 18 19 19 18 18 19 19 20 20 21 21 21 21 20 20 20 20 20 20 19 18 17 17 16 16 15 15 15 15 15 15 14 14 14 13 13 13 13 13 13 12 12 12 12 12 12 12
16 16 17 18 17 17 17 17 17 18 19 19 19 19 19 20 20 20 20 20 20 20 19 18 17 16 16 15 15 15 14 14 14 14 13 13 13 13 13 12 12 12 12 12 12 12 12 12 13
16 16 16 17 17 16 16 16 16 17 17 18 18 18 19 19 19 19 20 20 20 20 19 19 18 17 16 16 15 15 15 14 14 14 14 13 13 13 13 12 12 12 12 12 12 12 12 13 13
15 14 14 15 16 16 16 15 15 16 16 17 18 18 18 18 18 19 19 20 20 20 20 19 18 17 17 16 16 15 15 14 14 14 14 13 13 13 13 12 12 12 12 12 12 12 12 12 12
14 13 13 16 16 16 15 13 16 18 17 17 17 18 18 18 18 18 19 19 20 20 20 19 19 18 17 17 16 16 15 15 14 14 14 14 13 13 13 13 12 12 12 12 12 12 12 12 12
13 12 13 16 16 16 15 14 16 18 18 18 18 18 18 18 18 18 19 19 19 20 20 20 19 18 17 17 17 16 15 15 14 14 14 13 13 13 13 13 13 12 12 12 12 12 12 12 12
13 13 14 15 16 15 14 14 15 17 17 17 17 17 17 18 18 18 18 19 19 19 19 19 19 19 18 17 16 16 15 15 14 14 14 13 13 13 13 13 12 12 12 12 12 12 12 11 11
13 13 13 14 16 14 13 14 14 15 16 16 16 17 17 17 17 17 18 18 18 19 19 19 19 19 18 17 16 16 16 15 14 14 14 13 13 13 13 13 12 12 12 12 12 12 11 11 11
12 12 12 13 14 14 13 13 14 14 15 15 16 16 17 17 17 17 17 17 18 18 18 19 19 18 18 17 17 16 16 15 14 14 14 13 13 13 13 13 12 12 12 12 11 11 11 11 10
11 11 11 12 12 12 12 12 14 16 16 16 16 16 16 17 17 17 17 17 17 17 18 18 18 18 18 17 16 16 15 15 14 14 13 13 13 13 13 12 12 12 11 11 11 11 11 10 10
11 12 12 11 10 10 11 10 13 15 16 16 16 17 17 17 17 17 17 17 17 17 17 17 17 18 17 17 16 16 16 15 15 14 13 13 13 12 12 12 12 11 11 11 11 10 10 10 10
11 11 11 10 9 8 9 9 11 14 15 16 16 17 17 17 17 17 16 16 16 17 17 17 17 17 17 16 16 16 16 15 15 14 13 12 12 12 12 11 11 11 11 10 10 10 10 9 9
11 10 9 9 8 7 9 9 11 15 16 17 17 18 17 17 17 16 16 16 16 16 16 16 16 16 16 15 15 15 15 15 15 14 13 12 12 12 11 11 11 10 10 10 9 9 9 9 8
10 8 7 8 7 7 11 11 12 16 17 17 16 17 17 16 16 16 15 15 15 15 15 15 16 16 15 15 14 14 13 14 15 15 13 12 11 11 11 10 10 10 9 9 9 9 8 8 7
9 8 7 8 9 10 13 12 13 16 17 17 17 17 16 16 15 15 15 14 14 14 14 14 15 14 14 14 13 12 12 13 13 13 13 12 11 11 10 10 10 9 9 8 8 8 7 7 6
8 8 9 8 8 7 9 12 14 15 15 16 16 16 16 15 15 14 14 14 13 13 14 14 14 13 13 12 12 11 11 12 12 12 11 11 11 10 10 9 9 8 8 8 7 7 7 6 5
10 9 8 6 6 7 9 11 13 15 15 15 15 15 15 15 14 14 13 13 13 13 13 13 13 13 12 11 11 11 11 11 11 11 11 11 10 10 9 8 8 8 7 7 7 6 6 5 4
8 8 8 7 7 7 7 10 15 14 14 14 13 14 14 14 13 13 12 12 12 12 12 12 12 11 11 10 10 10 10 10 10 10 10 10 9 9 8 8 7 7 7 6 6 5 5 4 3
9 8 7 6 6 7 7 9 14 14 14 13 13 13 13 13 12 12 11 11 11 11 11 11 11 10 10 9 9 9 9 9 10 9 9 8 8 7 7 7 7 6 6 5 5 4 4 3 2
Wind_Speed
15 17 10 4 4 6 10 12 7 1 3 5 8 6 9 8 6 6 6 10 18 19 20 19 19 18 17 16 14 13 12 12 14 15 15 14 13 13 12 11 11 12 13 14 15 15 15 14 12
11 13 6 4 5 8 11 14 7 2 4 7 4 3 7 1 9 9 7 12 18 18 19 19 20 18 17 15 14 12 12 12 13 15 15 14 13 13 12 11 11 12 12 13 13 13 13 12 10
8 12 5 4 6 11 10 3 4 6 6 1 4 6 6 4 9 8 9 12 16 16 18 21 21 19 17 15 13 12 12 13 14 15 14 14 13 12 12 12 12 12 12 12 12 12 11 9 8
6 5 5 7 13 13 14 6 5 5 4 4 5 4 4 7 6 10 11 11 15 16 19 22 21 20 18 16 14 13 13 13 14 15 14 13 12 11 11 12 12 11 11 11 10 10 9 7 6
5 4 9 11 16 15 13 4 7 1 4 6 4 6 6 7 12 13 10 10 13 16 19 21 21 20 18 16 14 13 13 13 14 14 13 12 10 10 11 12 11 10 9 9 8 7 7 5 4
5 5 8 13 16 15 14 7 6 6 8 4 2 8 5 9 11 11 9 8 12 16 17 19 20 20 19 17 15 13 13 14 14 13 12 11 9 9 10 12 11 9 8 7 6 6 5 4 3
7 7 12 14 13 12 13 8 8 8 9 7 3 5 5 9 10 10 9 8 12 16 15 15 17 17 19 18 16 14 13 13 13 12 11 10 8 7 10 13 11 8 6 5 5 5 5 4 3
6 5 11 14 15 13 9 6 7 6 8 5 1 3 4 8 9 9 9 7 10 13 15 13 15 16 15 15 17 16 15 13 12 11 11 11 9 9 12 13 11 8 6 6 6 5 4 3 2
6 6 10 11 11 11 10 5 4 3 5 8 2 3 7 7 7 8 7 5 8 10 12 14 12 14 15 15 16 16 15 14 13 12 12 11 10 12 13 13 12 9 8 7 5 4 3 4 3
6 8 11 10 10 9 9 5 3 5 8 10 7 5 9 7 7 8 8 8 8 8 10 12 13 12 12 14 15 14 13 13 13 13 13 12 12 11 13 15 13 11 9 8 6 5 4 5 4
7 8 9 13 12 8 8 6 3 7 8 10 10 9 10 9 8 8 9 11 12 11 9 10 12 12 10 7 12 10 12 13 14 15 17 14 9 12 13 11 11 11 10 9 8 6 3 4 4
10 9 10 10 6 6 7 8 9 9 9 9 7 4 3 7 7 8 9 9 12 14 12 9 10 11 11 9 8 8 7 9 9 12 18 11 6 6 8 8 11 11 9 7 6 4 6 5 5
14 12 10 8 7 7 8 10 11 12 11 12 11 9 6 5 6 7 8 8 7 12 14 11 10 10 10 9 7 7 6 7 9 10 13 12 5 5 4 4 7 7 9 6 4 4 5 5 5
5 8 11 9 7 7 10 13 14 12 11 13 13 13 11 10 9 9 9 9 8 8 13 13 12 11 10 9 8 7 6 8 10 9 11 13 10 5 4 4 4 6 8 7 6 6 4 4 4
6 7 9 10 11 7 9 14 17 18 17 16 15 13 13 12 12 12 12 10 9 9 10 13 14 13 12 11 10 7 6 9 7 9 13 13 12 9 6 5 5 6 9 8 7 6 5 3 2
6 7 7 9 14 12 9 12 10 13 17 18 16 15 13 13 14 13 13 12 10 9 9 12 13 13 14 12 10 8 6 7 7 11 13 14 13 13 8 6 5 8 9 7 4 4 3 3 4
7 7 10 9 9 7 10 10 10 9 6 9 11 11 12 13 14 14 14 13 11 11 10 10 12 12 12 12 10 9 7 8 8 10 11 13 14 15 10 6 6 10 6 4 4 4 3 3 3
5 8 9 8 5 6 10 12 11 12 12 11 10 11 11 12 12 12 12 12 12 12 11 11 12 13 11 10 9 8 7 7 6 7 9 13 13 15 12 7 8 9 6 5 6 5 4 3 2
8 8 9 8 8 7 11 15 14 14 16 16 15 14 14 14 13 12 12 11 11 11 11 11 12 13 10 9 10 9 8 5 5 5 8 12 13 14 11 7 7 7 6 6 7 6 5 3 3
10 10 10 10 8 9 13 20 18 20 21 20 18 17 16 16 15 14 13 13 13 12 11 11 10 12 12 10 10 7 6 5 4 5 6 10 12 13 11 9 8 8 7 7 6 6 4 2 3
9 9 9 10 12 10 12 14 14 15 19 19 18 18 16 16 15 14 13 14 13 13 12 10 11 11 12 11 9 8 7 5 4 5 5 7 11 12 11 10 9 8 7 7 6 5 5 3 2
8 5 6 7 6 5 6 8 8 9 8 10 12 13 13 14 13 12 12 12 12 13 12 12 11 11 11 14 14 15 10 7 6 6 6 8 9 10 12 11 10 9 8 8 6 6 4 4 3
2 5 4 6 7 7 6 8 11 9 11 10 11 12 11 10 10 9 9 9 9 9 10 11 11 10 11 14 16 15 10 7 9 10 11 9 8 9 11 12 10 10 8 8 7 6 4 3 3
2 0 6 6 4 7 8 10 10 4 5 2 3 5 6 6 5 5 5 6 7 7 7 8 10 10 11 13 15 14 14 14 16 14 13 10 8 8 9 11 10 9 8 8 7 6 6 4 4
4 3 3 4 5 9 10 9 10 6 4 3 4 3 2 3 3 4 4 4 5 6 6 7 8 9 11 13 14 13 14 16 18 17 15 14 11 10 10 10 10 9 8 7 6 6 5 5 4
8 5 4 4 4 4 4 8 8 7 6 6 6 4 4 5 4 4 5 5 5 6 6 7 8 8 10 12 12 12 14 13 12 13 13 13 11 10 10 10 11 10 9 8 6 5 4 4 3
7 7 4 4 6 6 7 8 9 11 10 8 7 6 7 7 5 4 4 5 6 6 6 7 9 9 11 11 12 13 13 13 13 13 12 11 11 12 12 12 12 10 8 7 6 4 4 4 2
5 4 4 4 3 6 9 8 5 5 7 5 3 4 6 5 4 3 2 4 5 6 5 5 8 9 11 12 12 12 12 13 14 14 14 13 14 13 14 13 12 10 8 7 5 4 4 3 1
8 4 5 4 5 4 6 6 4 7 8 7 7 7 5 3 3 2 2 3 4 5 3 3 6 9 11 12 13 14 13 14 14 14 14 14 13 14 13 13 11 9 8 6 5 4 4 2 1
10 9 8 5 6 6 6 9 6 6 6 7 9 9 8 6 4 2 2 2 3 3 1 3 6 10 12 14 15 14 14 14 15 15 14 14 14 13 12 11 10 9 7 5 4 3 2 2 2
Wind_Direction
300 287 273 267 251 236 248 255 254 7 347 13 26 353 325 348 39 98 178 122 124 131 138 142 138 135 131 126 122 120 121 125 127 123 118 112 105 98 91 86 84 78 76 73 72 74 76 75 75
291 287 282 245 243 245 248 239 226 202 66 33 8 282 278 300 99 111 126 117 128 131 140 142 137 135 132 128 125 125 127 131 132 127 121 116 110 102 93 90 90 86 82 80 78 76 76 74 73
270 269 261 233 227 241 265 284 138 106 66 292 246 220 247 51 94 118 123 129 131 134 141 137 140 137 134 130 128 128 130 133 133 131 126 122 117 108 100 96 95 93 89 87 83 80 78 76 73
254 233 238 242 245 240 254 284 89 105 175 215 269 237 119 55 66 107 124 143 135 134 132 140 141 140 137 134 132 132 134 136 135 135 131 129 124 116 110 107 105 100 96 91 86 82 80 78 73
239 245 227 235 244 254 266 269 97 241 227 199 214 268 98 86 94 115 147 154 139 133 133 144 144 144 142 140 139 139 140 142 141 139 138 135 130 126 125 121 117 110 101 91 83 80 79 77 68
216 228 230 233 240 241 251 241 146 223 258 227 202 263 107 126 118 134 148 155 137 130 135 146 149 148 147 146 145 146 146 147 147 146 145 138 132 132 140 135 128 121 110 94 84 79 74 67 55
234 233 241 247 249 243 236 210 175 209 249 241 215 264 126 122 120 134 147 162 133 132 137 146 154 154 154 153 152 153 152 152 154 154 148 137 129 132 146 146 140 132 120 103 92 84 79 73 62
250 257 245 246 256 259 259 211 175 210 254 276 351 302 66 109 130 138 143 142 130 136 144 153 160 162 161 160 160 160 159 159 160 155 145 140 141 142 147 149 145 139 126 113 102 96 99 105 105
262 243 241 241 248 261 273 257 171 185 283 293 247 100 92 101 125 123 123 120 130 146 151 159 165 166 167 168 168 165 165 166 163 158 158 163 177 167 157 149 146 142 134 127 122 129 151 156 164
219 240 239 256 273 281 277 269 194 200 214 256 261 150 129 140 153 155 160 165 160 171 169 166 169 168 170 171 165 171 173 173 177 176 176 195 207 169 148 146 148 150 149 147 157 177 202 194 182
211 237 255 263 282 313 323 322 291 265 238 227 229 205 166 161 177 192 192 182 175 180 185 177 171 168 169 163 166 176 177 175 195 188 181 199 179 132 139 150 156 165 168 172 180 194 188 96 79
248 248 252 267 316 339 319 313 298 271 266 283 304 332 162 167 196 212 217 210 181 176 180 183 172 167 170 167 172 174 173 173 190 187 179 185 158 158 167 168 175 177 173 163 158 140 109 85 69
239 262 272 284 308 313 305 291 293 284 287 291 295 294 282 251 240 240 233 232 208 178 172 180 178 171 171 170 175 176 174 173 180 179 175 167 151 164 157 147 143 136 133 127 112 98 90 74 57
265 263 268 271 267 271 267 265 260 261 268 270 271 272 269 262 255 258 251 234 227 196 172 174 179 177 174 176 178 180 176 174 174 171 177 168 163 164 142 131 118 110 108 110 108 92 87 74 61
301 293 281 261 245 238 254 255 244 245 246 251 251 250 250 250 251 249 248 238 221 214 184 175 179 179 178 182 184 184 178 174 171 169 179 174 165 154 136 126 119 117 119 108 93 84 79 72 36
230 245 251 240 216 218 223 258 259 247 228 233 240 244 245 242 238 241 242 239 228 220 205 184 179 180 180 182 185 184 182 176 172 170 176 176 163 149 134 127 128 126 116 104 96 92 87 72 35
212 234 238 246 180 195 213 255 264 276 254 238 239 242 243 241 236 234 236 235 227 220 213 191 172 177 181 180 180 184 185 181 173 171 173 172 159 145 136 129 129 127 113 105 104 70 72 68 27
206 226 243 243 174 207 241 257 266 282 280 262 251 249 248 246 242 238 237 237 232 223 214 196 177 178 183 178 174 178 186 181 168 163 162 159 152 143 135 132 130 123 117 116 111 105 76 60 359
305 311 298 297 322 311 276 274 270 265 261 255 248 245 245 246 248 246 244 244 243 234 221 207 187 183 182 178 175 178 182 169 150 150 145 143 140 138 135 134 130 131 131 136 132 123 105 52 354
270 279 281 290 298 300 285 279 271 258 251 246 245 243 242 244 242 240 237 236 239 241 232 217 201 185 183 180 174 167 151 124 106 112 116 127 132 133 137 135 135 131 126 118 115 118 116 85 31
249 257 272 289 316 293 281 283 258 250 235 234 236 239 242 243 244 243 238 234 232 234 235 225 211 196 182 166 146 125 100 85 91 102 103 109 124 130 134 133 130 127 123 122 119 119 126 141 80
251 262 274 290 295 289 309 296 273 274 266 230 220 223 232 237 239 240 242 241 234 229 226 224 214 200 180 162 157 159 166 162 161 141 125 119 123 130 133 133 130 126 122 123 122 112 114 126 136
243 34 337 296 291 292 250 254 275 226 244 236 223 217 223 229 232 237 239 243 246 240 227 216 208 197 174 164 162 166 164 140 132 130 131 128 130 132 134 134 129 127 124 120 118 116 108 106 122
202 351 272 252 269 267 223 219 276 245 250 262 236 219 218 226 235 247 257 258 255 252 241 215 196 186 167 161 161 165 159 147 146 148 148 143 142 138 135 131 127 122 121 121 121 119 113 102 97
190 197 248 210 221 248 235 228 252 267 298 297 287 274 295 303 302 300 295 289 278 262 238 210 190 176 161 158 161 165 157 154 157 157 155 151 151 148 144 137 130 125 121 120 121 121 123 117 115
189 200 229 258 267 296 274 246 257 252 243 229 230 237 265 281 291 306 311 304 286 270 242 202 187 172 161 159 160 156 148 153 157 155 155 154 152 148 141 134 127 125 125 128 126 126 134 125 135
176 215 275 318 303 281 257 265 281 252 247 231 219 217 232 239 249 271 296 308 307 290 253 205 185 170 163 158 148 145 145 146 147 147 145 144 143 143 138 131 128 128 128 131 139 141 141 139 160
234 192 190 200 263 277 273 257 256 347 3 359 310 254 241 234 229 238 282 311 304 294 269 211 183 168 157 148 142 141 137 138 140 142 143 143 143 141 136 130 130 128 127 131 129 125 123 127 170
202 216 210 224 249 266 285 265 329 352 349 342 330 319 304 292 290 325 334 328 312 302 276 202 170 150 139 132 128 129 130 133 136 138 138 139 138 136 133 131 129 129 131 131 130 136 136 166 244
198 202 195 211 237 231 265 271 286 307 339 342 328 319 308 294 280 306 318 330 333 317 280 163 141 131 125 122 123 125 128 131 133 133 133 134 132 129 127 126 124 125 122 119 122 127 139 215 256
Height
1506 1507 1508 1509 1510 1510 1505 1490 1478 1477 1479 1479 1481 1482 1483 1484 1488 1498 1497 1497 1496 1497 1500 1502 1505 1507 1509 1511 1513 1515 1516 1518 1519 1521 1522 1523 1523 1524 1524 1524 1525 1526 1527 1528 1529 1530 1531 1532 1533
1505 1507 1509 1507 1509 1512 1499 1483 1479 1479 1481 1483 1484 1486 1486 1485 1488 1492 1495 1496 1496 1497 1500 1503 1505 1507 1509 1511 1513 1514 1516 1518 1520 1521 1522 1523 1524 1524 1525 1525 1526 1526 1527 1528 1530 1531 1532 1533 1534
1504 1505 1507 1503 1503 1504 1492 1475 1475 1478 1483 1486 1486 1486 1486 1487 1489 1491 1494 1496 1497 1498 1500 1503 1506 1508 1510 1511 1513 1514 1516 1518 1520 1521 1523 1524 1525 1525 1526 1526 1527 1527 1528 1529 1530 1532 1533 1534 1534
1503 1505 1504 1501 1498 1489 1483 1477 1476 1480 1484 1486 1486 1485 1485 1488 1490 1492 1494 1497 1498 1499 1500 1503 1506 1508 1510 1512 1513 1515 1516 1518 1520 1521 1523 1524 1525 1526 1527 1527 1528 1528 1529 1530 1531 1532 1533 1534 1535
1501 1501 1501 1499 1492 1484 1477 1475 1478 1482 1483 1484 1486 1484 1485 1488 1490 1492 1495 1498 1499 1499 1500 1503 1506 1508 1510 1512 1513 1515 1516 1518 1520 1521 1523 1524 1526 1527 1528 1528 1529 1530 1530 1531 1532 1533 1534 1535 1536
1500 1497 1498 1496 1487 1480 1477 1475 1478 1483 1483 1483 1485 1485 1487 1488 1490 1493 1495 1498 1500 1499 1500 1503 1505 1508 1510 1511 1513 1514 1516 1518 1519 1521 1523 1524 1526 1527 1528 1529 1530 1531 1531 1532 1533 1534 1535 1536 1536
1496 1493 1492 1488 1483 1478 1473 1473 1477 1482 1483 1483 1484 1484 1486 1488 1490 1493 1495 1498 1500 1499 1500 1503 1505 1507 1509 1511 1513 1514 1516 1517 1519 1521 1522 1524 1526 1527 1528 1529 1530 1531 1532 1533 1534 1535 1535 1536 1537
1491 1489 1486 1485 1483 1477 1470 1471 1474 1479 1482 1483 1484 1485 1487 1489 1490 1493 1496 1498 1500 1499 1499 1501 1504 1506 1508 1510 1512 1514 1515 1517 1518 1520 1522 1524 1525 1527 1528 1529 1530 1531 1532 1533 1534 1535 1536 1537 1537
1490 1490 1486 1482 1480 1476 1471 1471 1473 1478 1481 1483 1484 1486 1488 1489 1490 1492 1495 1497 1499 1500 1500 1501 1502 1504 1507 1509 1511 1513 1514 1516 1517 1519 1521 1523 1525 1527 1528 1529 1530 1531 1532 1533 1534 1535 1536 1536 1537
1487 1487 1481 1476 1474 1472 1471 1471 1473 1477 1481 1483 1484 1485 1486 1488 1490 1491 1493 1495 1497 1498 1500 1501 1502 1504 1506 1508 1509 1511 1513 1515 1516 1518 1520 1522 1524 1526 1527 1528 1529 1530 1531 1533 1534 1535 1535 1535 1536
1482 1481 1478 1475 1474 1473 1473 1473 1474 1476 1479 1481 1482 1483 1484 1486 1488 1490 1492 1493 1494 1496 1498 1500 1502 1503 1505 1506 1507 1509 1511 1513 1515 1517 1519 1521 1523 1525 1526 1528 1528 1529 1530 1531 1533 1533 1534 1535 1535
1478 1476 1475 1475 1475 1475 1476 1476 1476 1477 1478 1479 1480 1481 1482 1483 1485 1488 1490 1491 1492 1492 1495 1498 1500 1501 1503 1504 1506 1508 1509 1511 1513 1516 1518 1520 1522 1524 1525 1526 1527 1528 1529 1530 1532 1532 1533 1533 1533
1477 1476 1475 1474 1475 1477 1478 1479 1479 1477 1478 1478 1477 1478 1479 1481 1483 1485 1487 1489 1490 1490 1491 1494 1497 1499 1501 1502 1504 1506 1508 1509 1512 1515 1517 1518 1520 1522 1524 1526 1527 1527 1528 1529 1530 1531 1531 1531 1532
1475 1475 1476 1475 1475 1477 1479 1479 1480 1476 1477 1476 1475 1475 1476 1478 1480 1482 1484 1485 1487 1488 1488 1490 1493 1496 1498 1500 1501 1503 1505 1507 1509 1511 1514 1516 1518 1520 1522 1524 1525 1526 1527 1528 1529 1529 1529 1530 1530
1477 1478 1476 1473 1474 1475 1478 1475 1473 1472 1473 1472 1472 1472 1472 1474 1476 1477 1479 1481 1483 1485 1486 1487 1489 1492 1494 1496 1498 1500 1502 1505 1507 1508 1511 1514 1516 1518 1520 1522 1523 1524 1525 1526 1527 1527 1528 1528 1528
1478 1479 1478 1467 1467 1470 1478 1474 1467 1464 1464 1465 1466 1467 1468 1468 1470 1472 1474 1476 1478 1480 1482 1483 1484 1487 1489 1491 1493 1496 1499 1501 1503 1505 1508 1511 1513 1515 1517 1519 1521 1522 1523 1524 1525 1525 1526 1526 1525
1477 1478 1473 1466 1462 1465 1470 1468 1463 1460 1459 1459 1460 1461 1462 1462 1463 1465 1467 1469 1472 1474 1477 1478 1479 1481 1484 1486 1489 1492 1495 1497 1499 1502 1504 1507 1510 1512 1514 1516 1518 1520 1521 1522 1523 1523 1524 1524 1523
1473 1472 1467 1464 1459 1463 1465 1463 1460 1458 1457 1456 1456 1456 1456 1455 1456 1458 1459 1462 1464 1467 1470 1472 1473 1475 1479 1482 1484 1487 1490 1493 1495 1497 1500 1503 1505 1507 1510 1513 1515 1516 1518 1519 1520 1521 1522 1521 1521
1467 1470 1470 1464 1460 1463 1462 1459 1456 1454 1452 1450 1449 1449 1449 1449 1450 1451 1452 1454 1456 1459 1461 1464 1466 1468 1472 1475 1477 1480 1483 1486 1490 1493 1495 1498 1500 1503 1506 1508 1511 1513 1515 1516 1517 1518 1519 1519 1518
1470 1473 1472 1468 1464 1464 1461 1454 1449 1444 1440 1439 1440 1440 1440 1441 1442 1444 1445 1447 1448 1450 1453 1456 1459 1461 1464 1467 1470 1474 1477 1481 1484 1487 1489 1492 1495 1498 1502 1504 1507 1509 1511 1513 1514 1515 1516 1516 1515
1473 1475 1473 1472 1469 1466 1464 1451 1438 1426 1426 1428 1430 1431 1432 1433 1434 1436 1438 1439 1441 1443 1446 1449 1452 1455 1458 1461 1464 1468 1471 1474 1477 1480 1483 1486 1490 1494 1498 1501 1503 1506 1508 1510 1511 1512 1513 1513 1512
1474 1469 1470 1473 1476 1472 1466 1464 1436 1426 1422 1420 1421 1422 1423 1425 1427 1429 1431 1433 1434 1436 1439 1442 1446 1449 1452 1454 1455 1459 1462 1465 1468 1472 1476 1481 1485 1490 1493 1497 1499 1502 1504 1506 1508 1509 1509 1510 1509
1470 1471 1474 1475 1477 1478 1469 1470 1437 1423 1421 1416 1415 1416 1418 1420 1422 1423 1425 1426 1428 1430 1432 1435 1438 1442 1444 1446 1448 1453 1457 1460 1463 1467 1471 1476 1481 1485 1489 1492 1495 1498 1501 1503 1505 1505 1506 1506 1506
1469 1475 1477 1476 1479 1481 1463 1461 1438 1420 1413 1410 1410 1412 1414 1416 1418 1419 1420 1421 1422 1424 1426 1428 1430 1434 1437 1439 1442 1446 1450 1453 1456 1460 1465 1470 1475 1480 1484 1488 1491 1494 1497 1499 1501 1502 1503 1503 1502
1473 1480 1482 1478 1479 1471 1450 1445 1430 1412 1408 1408 1409 1410 1412 1414 1416 1417 1417 1418 1418 1419 1420 1422 1424 1427 1430 1434 1437 1441 1444 1447 1451 1455 1459 1464 1469 1474 1479 1483 1487 1490 1493 1496 1498 1499 1500 1499 1499
1472 1476 1480 1476 1465 1451 1438 1435 1419 1406 1403 1404 1406 1408 1410 1412 1413 1414 1415 1415 1415 1415 1415 1416 1418 1421 1425 1429 1433 1437 1440 1443 1446 1451 1455 1460 1465 1470 1475 1480 1484 1487 1490 1493 1495 1496 1496 1496 1495
1471 1474 1471 1474 1471 1470 1450 1430 1414 1403 1401 1401 1403 1405 1407 1409 1410 1411 1411 1412 1411 1411 1411 1412 1414 1416 1420 1424 1429 1432 1436 1439 1442 1447 1452 1457 1462 1467 1471 1476 1481 1485 1488 1490 1492 1493 1492 1492 1491
1466 1468 1473 1480 1482 1471 1446 1430 1418 1405 1403 1402 1402 1403 1404 1405 1406 1407 1407 1407 1407 1407 1407 1407 1409 1412 1415 1420 1424 1428 1431 1435 1439 1444 1448 1454 1459 1464 1469 1474 1479 1483 1485 1487 1489 1489 1489 1488 1488
1468 1470 1469 1470 1468 1470 1456 1432 1404 1405 1404 1405 1405 1403 1403 1403 1403 1403 1403 1403 1402 1402 1402 1403 1405 1408 1412 1416 1419 1424 1428 1432 1437 1441 1446 1452 1457 1462 1468 1473 1477 1480 1483 1485 1486 1486 1485 1485 1484
1460 1463 1467 1475 1469 1462 1458 1433 1408 1405 1403 1404 1404 1403 1401 1400 1399 1399 1398 1398 1398 1398 1398 1400 1402 1405 1408 1412 1416 1421 1425 1430 1434 1439 1445 1451 1456 1462 1467 1472 1476 1479 1481 1482 1482 1482 1482 1481 1480